BAW69 MWCR-TNCM

Flight info

Callsign BAW69
Flight time 2h 9m
Altitude 35000
Route NALRO2 NALRO UG633 SIA UT6 KEBET UL577 ANTEX B520 JUICE
Aircraft B77W/H-SDE1E2E3FGHIJ2J3J4J5M1RWXY/LB1D1

Departure

Time 2026-04-25 19:24
Airport Owen Roberts International Airport (MWCR)

Arrival

Time 2026-04-25 21:34
Airport Princess Juliana International Airport (TNCM)
Time Latitude Longitude Altitude Speed Heading
2026-04-25 18:33 19.29600 -81.35483 18 ft 0 kts 346°
2026-04-25 19:09 19.29572 -81.35474 18 ft 3 kts 334°
2026-04-25 19:09 19.29556 -81.35466 18 ft 3 kts 340°
2026-04-25 19:09 19.29529 -81.35460 18 ft 2 kts 346°
2026-04-25 19:10 19.29539 -81.35467 18 ft 1 kts 309°
2026-04-25 19:10 19.29542 -81.35477 18 ft 1 kts 270°
2026-04-25 19:10 19.29536 -81.35494 18 ft 3 kts 242°
2026-04-25 19:10 19.29529 -81.35506 18 ft 0 kts 241°
2026-04-25 19:18 19.29524 -81.35520 18 ft 5 kts 256°
2026-04-25 19:18 19.29512 -81.35569 18 ft 7 kts 251°
2026-04-25 19:19 19.29474 -81.35589 18 ft 8 kts 174°
2026-04-25 19:19 19.29418 -81.35578 18 ft 8 kts 167°
2026-04-25 19:19 19.29350 -81.35570 18 ft 9 kts 202°
2026-04-25 19:19 19.29320 -81.35616 18 ft 15 kts 252°
2026-04-25 19:20 19.29252 -81.35893 18 ft 37 kts 256°
2026-04-25 19:20 19.29191 -81.36150 18 ft 34 kts 256°
2026-04-25 19:20 19.29135 -81.36387 18 ft 31 kts 256°
2026-04-25 19:20 19.29083 -81.36601 18 ft 28 kts 255°
2026-04-25 19:21 19.29039 -81.36790 18 ft 20 kts 256°
2026-04-25 19:21 19.29030 -81.36910 18 ft 6 kts 320°
2026-04-25 19:21 19.29070 -81.36945 18 ft 7 kts 292°
2026-04-25 19:22 19.29066 -81.36987 18 ft 5 kts 240°
2026-04-25 19:22 19.29031 -81.37001 18 ft 7 kts 170°
2026-04-25 19:22 19.29007 -81.36928 18 ft 0 kts 78°
2026-04-25 19:24 19.29028 -81.36831 18 ft 44 kts 77°
2026-04-25 19:24 19.29179 -81.36197 18 ft 130 kts 76°
2026-04-25 19:24 19.29761 -81.33694 950 ft 204 kts 80°
2026-04-25 19:25 19.29674 -81.30376 2259 ft 255 kts 110°
2026-04-25 19:25 19.28722 -81.28626 3066 ft 267 kts 133°
2026-04-25 19:25 19.27399 -81.27059 4127 ft 271 kts 132°
2026-04-25 19:26 19.26059 -81.25474 5125 ft 277 kts 131°
2026-04-25 19:26 19.24782 -81.23932 6006 ft 285 kts 131°
2026-04-25 19:26 19.23545 -81.22324 6917 ft 288 kts 120°
2026-04-25 19:26 19.22827 -81.20353 7791 ft 292 kts 102°
2026-04-25 19:27 19.22375 -81.18130 8744 ft 296 kts 100°
2026-04-25 19:27 19.22078 -81.16553 9415 ft 299 kts 100°
2026-04-25 19:27 19.21442 -81.13233 10569 ft 314 kts 99°
2026-04-25 19:27 19.20933 -81.10614 11181 ft 333 kts 100°
2026-04-25 19:28 19.20393 -81.07855 11837 ft 351 kts 100°
2026-04-25 19:28 19.19863 -81.05148 12424 ft 368 kts 100°
2026-04-25 19:28 19.19271 -81.02125 13054 ft 386 kts 100°
2026-04-25 19:28 19.18614 -80.98776 13708 ft 403 kts 100°
2026-04-25 19:29 19.17960 -80.95446 14308 ft 420 kts 100°
2026-04-25 19:29 19.17294 -80.92061 15104 ft 429 kts 100°
2026-04-25 19:29 19.16609 -80.88586 15979 ft 436 kts 101°
2026-04-25 19:29 19.15889 -80.84934 16861 ft 443 kts 101°
2026-04-25 19:30 19.15202 -80.81451 17674 ft 449 kts 101°
2026-04-25 19:30 19.14561 -80.78209 18336 ft 456 kts 101°
2026-04-25 19:30 19.13911 -80.74918 19018 ft 463 kts 101°
2026-04-25 19:30 19.13243 -80.71545 19690 ft 469 kts 101°
2026-04-25 19:31 19.12577 -80.68182 20333 ft 475 kts 101°
2026-04-25 19:31 19.11898 -80.64757 20976 ft 481 kts 101°
2026-04-25 19:31 19.11212 -80.61299 21607 ft 487 kts 101°
2026-04-25 19:31 19.10504 -80.57737 22211 ft 494 kts 101°
2026-04-25 19:32 19.09801 -80.54202 22829 ft 499 kts 101°
2026-04-25 19:32 19.09087 -80.50614 23465 ft 504 kts 101°
2026-04-25 19:32 19.08366 -80.46999 24080 ft 509 kts 101°
2026-04-25 19:32 19.07877 -80.44545 24487 ft 512 kts 101°
2026-04-25 19:33 19.06884 -80.39575 25295 ft 519 kts 101°
2026-04-25 19:33 19.06146 -80.35883 25865 ft 525 kts 101°
2026-04-25 19:33 19.05387 -80.32089 26446 ft 530 kts 102°
2026-04-25 19:33 19.04622 -80.28275 27006 ft 535 kts 102°
2026-04-25 19:34 19.03853 -80.24438 27586 ft 539 kts 102°
2026-04-25 19:34 19.03075 -80.20568 28124 ft 544 kts 102°
2026-04-25 19:34 19.02238 -80.16672 28703 ft 548 kts 104°
2026-04-25 19:34 19.01341 -80.12725 29241 ft 553 kts 104°
2026-04-25 19:35 19.00439 -80.08771 29937 ft 553 kts 104°
2026-04-25 19:35 18.99547 -80.04853 30725 ft 552 kts 104°
2026-04-25 19:35 18.98657 -80.00945 31479 ft 551 kts 104°
2026-04-25 19:35 18.97770 -79.97047 32141 ft 551 kts 103°
2026-04-25 19:36 18.96860 -79.93048 32772 ft 551 kts 103°
2026-04-25 19:36 18.95890 -79.88786 33502 ft 550 kts 104°
2026-04-25 19:36 18.94980 -79.84789 34276 ft 547 kts 104°
2026-04-25 19:36 18.94005 -79.80509 34866 ft 548 kts 104°
2026-04-25 19:37 18.92006 -79.71744 34891 ft 545 kts 104°
2026-04-25 19:37 18.90012 -79.63023 34891 ft 546 kts 104°
2026-04-25 19:38 18.87990 -79.54192 34894 ft 545 kts 104°
2026-04-25 19:38 18.85962 -79.45357 34895 ft 544 kts 104°
2026-04-25 19:39 18.83979 -79.36732 34885 ft 545 kts 104°
2026-04-25 19:39 18.82191 -79.28975 34868 ft 544 kts 104°
2026-04-25 19:40 18.80405 -79.21243 34877 ft 545 kts 104°
2026-04-25 19:40 18.78614 -79.13500 34883 ft 544 kts 104°
2026-04-25 19:41 18.76812 -79.05728 34887 ft 545 kts 104°
2026-04-25 19:41 18.75622 -79.00603 34888 ft 545 kts 104°
2026-04-25 19:42 18.73218 -78.90286 34889 ft 544 kts 104°
2026-04-25 19:42 18.71333 -78.82214 34889 ft 545 kts 104°
2026-04-25 19:43 18.69517 -78.74450 34891 ft 544 kts 104°
2026-04-25 19:43 18.67712 -78.66754 34894 ft 544 kts 105°
2026-04-25 19:44 18.65901 -78.59041 34895 ft 544 kts 105°
2026-04-25 19:44 18.64084 -78.51324 34893 ft 544 kts 105°
2026-04-25 19:45 18.62265 -78.43607 34896 ft 542 kts 105°
2026-04-25 19:45 18.60453 -78.35940 34897 ft 543 kts 105°
2026-04-25 19:46 18.58622 -78.28205 34884 ft 543 kts 105°
2026-04-25 19:46 18.56795 -78.20501 34884 ft 543 kts 105°
2026-04-25 19:47 18.54967 -78.12811 34886 ft 543 kts 105°
2026-04-25 19:47 18.53140 -78.05138 34892 ft 542 kts 105°
2026-04-25 19:48 18.51290 -77.97381 34890 ft 540 kts 105°
2026-04-25 19:48 18.49891 -77.89476 34902 ft 543 kts 95°
2026-04-25 19:49 18.49515 -77.84193 34904 ft 543 kts 94°
2026-04-25 19:49 18.48799 -77.73639 34915 ft 542 kts 94°
2026-04-25 19:50 18.47979 -77.61784 34910 ft 543 kts 94°
2026-04-25 19:51 18.47427 -77.53880 34907 ft 543 kts 94°
2026-04-25 19:51 18.46870 -77.45969 34913 ft 542 kts 94°
2026-04-25 19:52 18.46310 -77.38073 34912 ft 541 kts 94°
2026-04-25 19:52 18.45747 -77.30193 34895 ft 542 kts 95°
2026-04-25 19:53 18.45179 -77.22278 34897 ft 542 kts 94°
2026-04-25 19:53 18.44532 -77.13336 34904 ft 543 kts 94°
2026-04-25 19:54 18.43953 -77.05373 34908 ft 541 kts 94°
2026-04-25 19:54 18.43374 -76.97465 34910 ft 543 kts 94°
2026-04-25 19:55 18.42791 -76.89538 34907 ft 544 kts 95°
2026-04-25 19:55 18.42209 -76.81671 34904 ft 543 kts 94°
2026-04-25 19:56 18.41619 -76.73740 34893 ft 543 kts 95°
2026-04-25 19:56 18.41032 -76.65884 34900 ft 542 kts 95°
2026-04-25 19:57 18.40437 -76.57977 34899 ft 543 kts 95°
2026-04-25 19:57 18.39836 -76.50028 34897 ft 543 kts 95°
2026-04-25 19:58 18.39237 -76.42139 34897 ft 542 kts 95°
2026-04-25 19:58 18.38627 -76.34174 34896 ft 543 kts 95°
2026-04-25 19:59 18.37985 -76.25825 34885 ft 542 kts 95°
2026-04-25 19:59 18.37378 -76.17973 34886 ft 542 kts 95°
2026-04-25 20:00 18.36765 -76.10082 34887 ft 542 kts 95°
2026-04-25 20:00 18.36146 -76.02158 34889 ft 542 kts 95°
2026-04-25 20:01 18.35217 -75.90359 34889 ft 542 kts 95°
2026-04-25 20:01 18.34590 -75.82445 34889 ft 542 kts 95°
2026-04-25 20:02 18.33964 -75.74576 34891 ft 543 kts 95°
2026-04-25 20:02 18.33332 -75.66683 34894 ft 543 kts 95°
2026-04-25 20:03 18.32697 -75.58787 34896 ft 543 kts 95°
2026-04-25 20:03 18.32058 -75.50884 34895 ft 543 kts 95°
2026-04-25 20:04 18.31416 -75.42982 34898 ft 543 kts 95°
2026-04-25 20:04 18.30769 -75.35070 34896 ft 543 kts 95°
2026-04-25 20:05 18.30125 -75.27225 34882 ft 541 kts 96°
2026-04-25 20:05 18.29474 -75.19342 34886 ft 544 kts 96°
2026-04-25 20:06 18.28818 -75.11423 34887 ft 542 kts 96°
2026-04-25 20:06 18.28161 -75.03547 34889 ft 543 kts 96°
2026-04-25 20:07 18.27502 -74.95681 34891 ft 542 kts 96°
2026-04-25 20:07 18.26839 -74.87805 34895 ft 542 kts 96°
2026-04-25 20:08 18.26170 -74.79908 34901 ft 543 kts 96°
2026-04-25 20:08 18.25496 -74.71975 34911 ft 543 kts 96°
2026-04-25 20:09 18.25341 -74.63882 34909 ft 544 kts 83°
2026-04-25 20:09 18.26424 -74.56012 34916 ft 541 kts 81°
2026-04-25 20:10 18.27553 -74.48210 34917 ft 542 kts 81°
2026-04-25 20:10 18.28673 -74.40414 34920 ft 541 kts 81°
2026-04-25 20:11 18.29792 -74.32572 34911 ft 543 kts 81°
2026-04-25 20:11 18.30905 -74.24732 34915 ft 542 kts 81°
2026-04-25 20:12 18.32011 -74.16917 34928 ft 542 kts 81°
2026-04-25 20:12 18.32748 -74.11692 34940 ft 543 kts 81°
2026-04-25 20:13 18.34213 -74.01266 34956 ft 542 kts 81°
2026-04-25 20:13 18.35311 -73.93423 34952 ft 544 kts 81°
2026-04-25 20:14 18.36407 -73.85574 34932 ft 544 kts 81°
2026-04-25 20:14 18.37689 -73.76354 34926 ft 542 kts 81°
2026-04-25 20:15 18.39064 -73.66434 34918 ft 544 kts 82°
2026-04-25 20:15 18.40414 -73.56652 34908 ft 542 kts 81°
2026-04-25 20:16 18.41758 -73.46876 34896 ft 543 kts 82°
2026-04-25 20:16 18.43006 -73.37769 34899 ft 545 kts 82°
2026-04-25 20:17 18.44162 -73.29303 34892 ft 544 kts 82°
2026-04-25 20:17 18.45265 -73.21192 34891 ft 545 kts 82°
2026-04-25 20:18 18.46346 -73.13221 34892 ft 544 kts 82°
2026-04-25 20:18 18.47414 -73.05323 34894 ft 546 kts 82°
2026-04-25 20:19 18.48499 -72.97274 34895 ft 545 kts 82°
2026-04-25 20:19 18.49615 -72.88993 34896 ft 544 kts 82°
2026-04-25 20:20 18.50704 -72.81136 34895 ft 546 kts 82°
2026-04-25 20:20 18.51795 -72.73258 34896 ft 544 kts 82°
2026-04-25 20:21 18.52913 -72.65147 34913 ft 547 kts 82°
2026-04-25 20:21 18.54051 -72.56855 34928 ft 546 kts 82°
2026-04-25 20:22 18.54790 -72.51455 34933 ft 546 kts 82°
2026-04-25 20:22 18.56220 -72.40975 34943 ft 545 kts 82°
2026-04-25 20:23 18.57246 -72.33049 34932 ft 547 kts 86°
2026-04-25 20:23 18.56880 -72.25114 34954 ft 543 kts 100°
2026-04-25 20:24 18.55786 -72.17258 34941 ft 542 kts 101°
2026-04-25 20:24 18.54680 -72.09458 34927 ft 543 kts 101°
2026-04-25 20:25 18.53560 -72.01582 34908 ft 542 kts 101°
2026-04-25 20:25 18.52447 -71.93784 34895 ft 542 kts 101°
2026-04-25 20:26 18.51567 -71.85744 34912 ft 544 kts 94°
2026-04-25 20:26 18.51294 -71.77796 34894 ft 545 kts 94°
2026-04-25 20:27 18.51030 -71.69862 34901 ft 544 kts 94°
2026-04-25 20:27 18.50761 -71.61930 34912 ft 543 kts 93°
2026-04-25 20:28 18.50484 -71.53970 34918 ft 545 kts 94°
2026-04-25 20:28 18.50205 -71.46045 34928 ft 544 kts 94°
2026-04-25 20:29 18.49920 -71.38068 34921 ft 545 kts 94°
2026-04-25 20:29 18.49628 -71.29999 34922 ft 543 kts 94°
2026-04-25 20:30 18.49323 -71.21697 34923 ft 545 kts 94°
2026-04-25 20:30 18.49009 -71.13227 34932 ft 544 kts 94°
2026-04-25 20:31 18.48675 -71.04346 34933 ft 545 kts 94°
2026-04-25 20:31 18.48353 -70.95882 34946 ft 545 kts 94°
2026-04-25 20:32 18.48047 -70.87929 34926 ft 545 kts 94°
2026-04-25 20:32 18.47740 -70.80021 34937 ft 544 kts 94°
2026-04-25 20:33 18.47425 -70.72037 34938 ft 545 kts 94°
2026-04-25 20:33 18.47162 -70.65403 34940 ft 545 kts 94°
2026-04-25 20:34 18.46784 -70.55974 34948 ft 544 kts 94°
2026-04-25 20:34 18.46462 -70.48041 34958 ft 545 kts 94°
2026-04-25 20:35 18.46136 -70.40086 34967 ft 545 kts 94°
2026-04-25 20:35 18.45808 -70.32171 34951 ft 543 kts 95°
2026-04-25 20:36 18.45475 -70.24228 34940 ft 546 kts 95°
2026-04-25 20:36 18.45138 -70.16241 34922 ft 544 kts 95°
2026-04-25 20:37 18.44575 -70.08321 34907 ft 546 kts 98°
2026-04-25 20:37 18.43851 -70.00395 34892 ft 545 kts 98°
2026-04-25 20:38 18.43534 -69.92477 34898 ft 547 kts 92°
2026-04-25 20:38 18.43499 -69.84483 34894 ft 546 kts 92°
2026-04-25 20:39 18.43464 -69.76527 34902 ft 547 kts 92°
2026-04-25 20:39 18.43432 -69.69870 34902 ft 546 kts 92°
2026-04-25 20:40 18.43544 -69.60558 34906 ft 547 kts 90°
2026-04-25 20:40 18.43818 -69.52542 34907 ft 548 kts 90°
2026-04-25 20:41 18.44080 -69.44501 34903 ft 549 kts 90°
2026-04-25 20:41 18.44329 -69.36526 34907 ft 548 kts 90°
2026-04-25 20:42 18.44571 -69.28518 34888 ft 548 kts 90°
2026-04-25 20:42 18.44808 -69.20517 34893 ft 549 kts 90°
2026-04-25 20:43 18.45041 -69.12488 34896 ft 550 kts 90°
2026-04-25 20:43 18.45269 -69.04491 34898 ft 549 kts 90°
2026-04-25 20:44 18.45493 -68.96465 34907 ft 549 kts 90°
2026-04-25 20:44 18.45715 -68.88441 34907 ft 549 kts 90°
2026-04-25 20:45 18.45932 -68.80412 34909 ft 550 kts 90°
2026-04-25 20:45 18.46147 -68.72377 34909 ft 550 kts 90°
2026-04-25 20:46 18.46358 -68.64347 34909 ft 549 kts 90°
2026-04-25 20:46 18.46566 -68.56271 34902 ft 550 kts 90°
2026-04-25 20:47 18.46769 -68.48300 34900 ft 550 kts 90°
2026-04-25 20:47 18.46970 -68.40247 34906 ft 549 kts 90°
2026-04-25 20:48 18.47169 -68.32158 34889 ft 551 kts 91°
2026-04-25 20:48 18.47362 -68.24168 34888 ft 550 kts 91°
2026-04-25 20:49 18.47553 -68.16117 34890 ft 550 kts 91°
2026-04-25 20:49 18.47740 -68.08078 34889 ft 550 kts 91°
2026-04-25 20:50 18.47925 -67.99989 34891 ft 554 kts 91°
2026-04-25 20:50 18.48114 -67.91944 34889 ft 550 kts 91°
2026-04-25 20:51 18.48301 -67.83907 34892 ft 551 kts 91°
2026-04-25 20:51 18.48484 -67.75865 34893 ft 551 kts 91°
2026-04-25 20:52 18.48635 -67.69157 34895 ft 551 kts 91°
2026-04-25 20:52 18.48841 -67.59783 34899 ft 550 kts 91°
2026-04-25 20:53 18.49013 -67.51756 34904 ft 550 kts 91°
2026-04-25 20:53 18.49183 -67.43694 34912 ft 551 kts 91°
2026-04-25 20:54 18.49352 -67.35518 34916 ft 548 kts 91°
2026-04-25 20:54 18.49538 -67.26296 34905 ft 550 kts 91°
2026-04-25 20:55 18.49720 -67.17110 34911 ft 549 kts 91°
2026-04-25 20:55 18.49840 -67.08022 34907 ft 547 kts 95°
2026-04-25 20:56 18.49423 -66.98887 34915 ft 548 kts 96°
2026-04-25 20:56 18.49003 -66.89866 34914 ft 547 kts 96°
2026-04-25 20:57 18.48598 -66.80885 34916 ft 547 kts 96°
2026-04-25 20:57 18.48227 -66.72525 34919 ft 545 kts 96°
2026-04-25 20:58 18.47872 -66.64551 34921 ft 549 kts 95°
2026-04-25 20:58 18.47518 -66.56574 34920 ft 547 kts 95°
2026-04-25 20:59 18.47154 -66.48467 34916 ft 550 kts 95°
2026-04-25 20:59 18.46792 -66.40401 34920 ft 547 kts 95°
2026-04-25 21:00 18.46838 -66.35081 34927 ft 549 kts 90°
2026-04-25 21:01 18.47270 -66.20383 34912 ft 548 kts 91°
2026-04-25 21:01 18.47477 -66.12350 34909 ft 549 kts 91°
2026-04-25 21:02 18.47669 -66.04367 34907 ft 547 kts 91°
2026-04-25 21:02 18.47839 -65.96957 34911 ft 549 kts 91°
2026-04-25 21:02 18.47929 -65.92985 34693 ft 548 kts 91°
2026-04-25 21:03 18.48018 -65.88968 34339 ft 543 kts 91°
2026-04-25 21:03 18.48104 -65.85037 33869 ft 537 kts 91°
2026-04-25 21:03 18.48188 -65.81128 33392 ft 530 kts 91°
2026-04-25 21:03 18.48270 -65.77286 32923 ft 524 kts 91°
2026-04-25 21:04 18.48350 -65.73480 32491 ft 519 kts 90°
2026-04-25 21:04 18.48428 -65.69694 32082 ft 516 kts 90°
2026-04-25 21:04 18.48504 -65.65959 31678 ft 514 kts 90°
2026-04-25 21:04 18.48582 -65.62118 31260 ft 512 kts 90°
2026-04-25 21:05 18.48657 -65.58360 30848 ft 507 kts 90°
2026-04-25 21:05 18.48732 -65.54581 30433 ft 502 kts 90°
2026-04-25 21:05 18.48804 -65.50897 29982 ft 499 kts 89°
2026-04-25 21:05 18.48874 -65.47282 29509 ft 496 kts 89°
2026-04-25 21:06 18.48943 -65.43671 29028 ft 493 kts 89°
2026-04-25 21:06 18.49011 -65.40089 28546 ft 489 kts 89°
2026-04-25 21:06 18.49078 -65.36537 28069 ft 486 kts 89°
2026-04-25 21:06 18.49121 -65.34183 27751 ft 483 kts 90°
2026-04-25 21:07 18.48746 -65.29549 27088 ft 476 kts 103°
2026-04-25 21:07 18.47879 -65.26189 26581 ft 469 kts 113°
2026-04-25 21:07 18.46582 -65.23099 26088 ft 462 kts 121°
2026-04-25 21:07 18.45050 -65.20153 25598 ft 458 kts 122°
2026-04-25 21:08 18.43501 -65.17239 25104 ft 455 kts 122°
2026-04-25 21:08 18.41953 -65.14339 24616 ft 451 kts 122°
2026-04-25 21:08 18.40428 -65.11490 24119 ft 448 kts 122°
2026-04-25 21:08 18.38904 -65.08646 23632 ft 444 kts 122°
2026-04-25 21:09 18.36064 -65.02934 22636 ft 441 kts 113°
2026-04-25 21:09 18.35194 -64.99827 22141 ft 440 kts 103°
2026-04-25 21:09 18.34631 -64.96587 21652 ft 437 kts 102°
2026-04-25 21:10 18.34099 -64.93316 21156 ft 434 kts 101°
2026-04-25 21:10 18.33599 -64.90234 20680 ft 431 kts 102°
2026-04-25 21:10 18.33097 -64.87143 20204 ft 427 kts 102°
2026-04-25 21:10 18.32600 -64.84087 19727 ft 424 kts 102°
2026-04-25 21:11 18.32100 -64.81020 19248 ft 421 kts 102°
2026-04-25 21:11 18.31609 -64.78004 18781 ft 419 kts 102°
2026-04-25 21:11 18.31120 -64.75009 18318 ft 416 kts 102°
2026-04-25 21:11 18.30637 -64.72052 17840 ft 413 kts 102°
2026-04-25 21:12 18.30153 -64.69092 17365 ft 410 kts 102°
2026-04-25 21:12 18.29668 -64.66136 16898 ft 407 kts 102°
2026-04-25 21:12 18.29192 -64.63229 16456 ft 404 kts 101°
2026-04-25 21:12 18.28875 -64.61301 16151 ft 403 kts 101°
2026-04-25 21:13 18.28240 -64.57436 15526 ft 399 kts 101°
2026-04-25 21:13 18.27771 -64.54584 15062 ft 396 kts 101°
2026-04-25 21:13 18.27305 -64.51754 14596 ft 394 kts 101°
2026-04-25 21:13 18.26841 -64.48940 14121 ft 391 kts 101°
2026-04-25 21:14 18.26375 -64.46114 13654 ft 389 kts 101°
2026-04-25 21:14 18.25913 -64.43314 13196 ft 387 kts 101°
2026-04-25 21:14 18.25458 -64.40562 12744 ft 384 kts 101°
2026-04-25 21:14 18.25004 -64.37816 12271 ft 382 kts 101°
2026-04-25 21:15 18.24551 -64.35078 11798 ft 379 kts 100°
2026-04-25 21:15 18.24098 -64.32346 11273 ft 368 kts 101°
2026-04-25 21:15 18.23659 -64.29697 10853 ft 365 kts 101°
2026-04-25 21:15 18.23222 -64.27064 10378 ft 364 kts 101°
2026-04-25 21:16 18.22792 -64.24479 9997 ft 359 kts 101°
2026-04-25 21:16 18.22371 -64.21944 9926 ft 344 kts 101°
2026-04-25 21:16 18.21969 -64.19526 9919 ft 328 kts 101°
2026-04-25 21:16 18.21583 -64.17205 9918 ft 313 kts 101°
2026-04-25 21:17 18.21211 -64.14974 9751 ft 306 kts 101°
2026-04-25 21:17 18.20851 -64.12816 9583 ft 301 kts 101°
2026-04-25 21:17 18.20490 -64.10655 9416 ft 301 kts 101°
2026-04-25 21:17 18.20123 -64.08463 9249 ft 303 kts 101°
2026-04-25 21:18 18.19759 -64.06282 9081 ft 300 kts 101°
2026-04-25 21:18 18.19399 -64.04127 8916 ft 300 kts 101°
2026-04-25 21:18 18.19039 -64.01980 8749 ft 299 kts 101°
2026-04-25 21:18 18.18680 -63.99835 8580 ft 295 kts 101°
2026-04-25 21:19 18.18330 -63.97746 8417 ft 294 kts 101°
2026-04-25 21:19 18.17973 -63.95613 8247 ft 293 kts 101°
2026-04-25 21:19 18.17618 -63.93500 8079 ft 293 kts 101°
2026-04-25 21:19 18.17269 -63.91420 7912 ft 291 kts 101°
2026-04-25 21:20 18.16917 -63.89328 7744 ft 291 kts 102°
2026-04-25 21:20 18.16683 -63.87934 7631 ft 290 kts 102°
2026-04-25 21:20 18.16214 -63.85150 7407 ft 289 kts 102°
2026-04-25 21:20 18.15865 -63.83077 7238 ft 287 kts 102°
2026-04-25 21:21 18.15517 -63.81010 7072 ft 289 kts 102°
2026-04-25 21:21 18.15168 -63.78938 6904 ft 287 kts 102°
2026-04-25 21:21 18.14818 -63.76867 6736 ft 285 kts 101°
2026-04-25 21:21 18.14475 -63.74834 6568 ft 282 kts 102°
2026-04-25 21:22 18.14135 -63.72816 6397 ft 275 kts 101°
2026-04-25 21:22 18.13785 -63.70747 6218 ft 268 kts 102°
2026-04-25 21:22 18.13441 -63.68711 6038 ft 261 kts 102°
2026-04-25 21:22 18.13103 -63.66715 5856 ft 254 kts 102°
2026-04-25 21:23 18.12708 -63.64791 5674 ft 247 kts 105°
2026-04-25 21:23 18.12266 -63.62906 5490 ft 241 kts 105°
2026-04-25 21:23 18.11861 -63.61128 5318 ft 241 kts 105°
2026-04-25 21:23 18.11465 -63.59366 5144 ft 240 kts 105°
2026-04-25 21:24 18.11084 -63.57656 4975 ft 238 kts 105°
2026-04-25 21:24 18.10709 -63.55977 4808 ft 238 kts 105°
2026-04-25 21:24 18.10333 -63.54296 4641 ft 237 kts 105°
2026-04-25 21:24 18.09952 -63.52594 4471 ft 236 kts 105°
2026-04-25 21:25 18.09578 -63.50921 4302 ft 235 kts 104°
2026-04-25 21:25 18.09205 -63.49255 4132 ft 234 kts 104°
2026-04-25 21:25 18.08840 -63.47621 3968 ft 228 kts 104°
2026-04-25 21:25 18.08479 -63.46011 3800 ft 225 kts 104°
2026-04-25 21:26 18.08121 -63.44414 3633 ft 225 kts 104°
2026-04-25 21:26 18.07765 -63.42825 3465 ft 225 kts 104°
2026-04-25 21:26 18.07406 -63.41227 3296 ft 224 kts 104°
2026-04-25 21:26 18.06891 -63.39692 3127 ft 223 kts 114°
2026-04-25 21:27 18.06261 -63.38199 2952 ft 223 kts 115°
2026-04-25 21:27 18.05635 -63.36720 2779 ft 221 kts 115°
2026-04-25 21:27 18.04910 -63.35308 2590 ft 219 kts 133°
2026-04-25 21:27 18.03634 -63.34462 2400 ft 217 kts 167°
2026-04-25 21:28 18.02152 -63.34252 2233 ft 211 kts 175°
2026-04-25 21:28 18.00695 -63.34120 2058 ft 205 kts 175°
2026-04-25 21:28 17.99304 -63.33991 1986 ft 194 kts 172°
2026-04-25 21:28 17.98141 -63.33417 1962 ft 187 kts 133°
2026-04-25 21:29 17.97594 -63.32186 1960 ft 188 kts 93°
2026-04-25 21:29 17.97837 -63.30881 1967 ft 178 kts 71°
2026-04-25 21:29 17.98260 -63.29683 1967 ft 172 kts 70°
2026-04-25 21:29 17.98674 -63.28526 1972 ft 171 kts 70°
2026-04-25 21:30 17.99097 -63.27353 1981 ft 172 kts 70°
2026-04-25 21:30 17.99604 -63.26217 1886 ft 172 kts 61°
2026-04-25 21:30 18.00210 -63.25137 1796 ft 168 kts 60°
2026-04-25 21:30 18.00615 -63.24426 1786 ft 169 kts 60°
2026-04-25 21:31 18.01405 -63.23039 1790 ft 162 kts 60°
2026-04-25 21:31 18.01998 -63.22002 1783 ft 163 kts 60°
2026-04-25 21:31 18.02566 -63.20972 1777 ft 164 kts 66°
2026-04-25 21:31 18.02925 -63.19837 1717 ft 163 kts 77°
2026-04-25 21:32 18.03141 -63.18686 1653 ft 160 kts 82°
2026-04-25 21:32 18.03197 -63.17513 1508 ft 162 kts 90°
2026-04-25 21:32 18.03280 -63.16327 1211 ft 160 kts 80°
2026-04-25 21:32 18.03494 -63.15186 828 ft 160 kts 80°
2026-04-25 21:33 18.03664 -63.14049 495 ft 154 kts 83°
2026-04-25 21:33 18.03807 -63.12964 216 ft 147 kts 84°
2026-04-25 21:33 18.03946 -63.11916 47 ft 143 kts 82°
2026-04-25 21:33 18.04078 -63.10997 22 ft 111 kts 82°
2026-04-25 21:34 18.04166 -63.10388 24 ft 56 kts 82°
2026-04-25 21:34 18.04208 -63.10065 21 ft 30 kts 80°
2026-04-25 21:34 18.04257 -63.09926 19 ft 13 kts 54°
2026-04-25 21:34 18.04281 -63.09873 18 ft 3 kts 110°
2026-04-25 21:35 18.04268 -63.09861 18 ft 3 kts 161°
2026-04-25 21:35 18.04243 -63.09889 18 ft 3 kts 257°
2026-04-25 21:35 18.04239 -63.09905 19 ft 5 kts 259°
2026-04-25 21:35 18.04224 -63.09998 20 ft 19 kts 260°
2026-04-25 21:36 18.04196 -63.10187 22 ft 30 kts 262°
2026-04-25 21:36 18.04165 -63.10407 24 ft 30 kts 262°
2026-04-25 21:36 18.04131 -63.10634 22 ft 32 kts 261°
2026-04-25 21:36 18.04096 -63.10872 21 ft 33 kts 262°
2026-04-25 21:37 18.04061 -63.11114 24 ft 28 kts 261°
2026-04-25 21:37 18.04047 -63.11213 25 ft 13 kts 262°
2026-04-25 21:37 18.04104 -63.11289 24 ft 10 kts 350°
2026-04-25 21:37 18.04186 -63.11303 25 ft 10 kts 351°
2026-04-25 21:38 18.04232 -63.11340 26 ft 8 kts 286°
2026-04-25 21:38 18.04235 -63.11398 27 ft 4 kts 290°
2026-04-25 21:38 18.04257 -63.11417 28 ft 5 kts 339°
2026-04-25 21:38 18.04287 -63.11424 29 ft 2 kts 350°
2026-04-25 21:39 18.04302 -63.11427 29 ft 1 kts 349°
2026-04-25 21:39 18.04306 -63.11428 29 ft 0 kts 350°